Location: Góry Miechowskie
(50.3599°N, 20.1803°E)
Time: 16:50:10
(UTC+00:00)

Cosmos 2228 - Pass Details

Date: 24 September 2024
Orbit: 574 x 600 km, 82.5° (Epoch: 12 October)

Event Time Altitude Azimuth Distance (km) Brightness Sun altitude
Exits shadow 00:31:00 20° 19° (NNE) 1,411 5.4 -34.1°
Drops below altitude 10° 00:32:23 10° 15° (NNE) 1,951 6.3 -34.0°
Sets 00:34:37 0° 13° (NNE) 2,861 7.3 -33.8°
